Probability
0 0 0 0 0 0 0 0 0 0 0 0 0 0 0 0 0 0 0 0 0 0 0 0 0 1 2 2 1 1 2 1 0 0 0 0 0 0 0 0 0 0 0 0
0 0 0 0 0 0 0 0 0 0 0 0 0 0 0 0 0 0 0 0 0 0 0 0 0 1 2 3 2 2 3 2 1 0 0 0 0 0 0 0 0 0 0 0
0 0 0 0 0 0 0 0 0 0 0 0 0 0 0 0 0 0 0 0 0 0 0 0 0 1 2 3 3 3 3 2 1 0 0 0 0 0 0 0 0 0 0 0
0 0 0 0 0 0 0 0 0 0 0 0 0 0 0 0 0 0 0 0 0 0 0 0 0 0 1 3 3 3 3 2 1 0 0 0 0 0 0 0 0 0 0 0
0 0 0 0 0 0 0 0 0 0 0 0 0 0 0 0 0 0 0 0 0 0 0 0 0 0 1 2 3 3 3 2 1 0 0 0 0 0 0 0 0 0 0 0
0 0 0 0 0 0 0 0 0 0 0 0 0 0 0 0 0 0 0 0 0 0 0 0 0 0 1 2 3 3 3 2 1 0 0 0 0 0 0 0 0 0 0 0
0 0 0 0 0 0 0 0 0 0 0 0 0 0 0 0 0 0 0 0 0 0 0 0 0 0 1 2 3 3 2 1 0 0 0 0 0 0 0 0 0 0 0 0
0 0 0 0 0 0 0 0 0 0 0 0 0 0 0 0 0 0 0 0 0 0 0 0 0 0 0 1 3 3 1 0 0 0 0 0 0 0 0 0 0 0 0 0
0 0 0 0 0 0 0 0 0 0 0 0 0 0 0 0 0 0 0 0 0 0 0 0 0 0 0 1 2 2 1 0 0 0 0 0 0 0 0 0 0 0 0 0
0 0 0 0 0 0 0 0 0 0 0 0 0 0 0 0 0 0 0 0 0 0 0 0 0 0 0 1 2 2 1 0 0 0 0 0 0 0 0 0 0 0 0 0
0 0 0 0 0 0 0 0 0 0 0 0 0 0 0 0 0 0 0 0 0 0 0 0 0 0 0 0 1 2 1 0 0 0 0 0 0 0 0 0 0 0 0 0
0 0 0 0 0 0 0 0 0 0 0 0 0 0 0 0 0 0 0 0 0 0 0 0 0 0 0 0 1 2 1 0 0 0 0 0 0 0 0 0 0 0 0 0
0 0 0 0 0 0 0 0 0 0 0 0 0 0 0 0 0 0 0 0 0 0 0 0 0 0 0 0 1 1 1 0 0 0 0 0 0 0 0 0 0 0 0 0
0 0 0 0 0 0 0 0 0 0 0 0 0 0 0 0 0 0 0 0 0 0 0 0 0 0 0 0 0 1 1 1 0 0 0 0 0 0 0 0 0 0 0 0
0 0 0 0 0 0 0 0 0 0 0 0 0 0 0 0 0 0 0 0 0 0 0 0 0 0 0 0 0 1 1 1 0 0 0 0 0 0 0 0 0 0 0 0
0 0 0 0 0 0 0 0 0 0 0 0 0 0 0 0 0 0 0 0 0 0 0 0 0 0 0 0 0 0 1 1 0 0 0 0 0 0 0 0 0 0 0 0
0 0 0 0 0 0 0 0 0 0 0 0 0 0 0 0 0 0 0 0 0 0 0 0 0 0 0 0 0 0 0 0 0 0 0 0 0 0 0 0 0 0 0 0
0 0 0 0 0 0 0 0 0 0 0 0 0 0 0 0 0 0 0 0 0 0 0 0 0 0 0 0 0 0 0 0 0 0 0 0 0 0 0 0 0 0 0 0
0 0 0 0 0 0 0 0 0 0 0 0 0 0 0 0 0 0 0 0 0 0 0 0 0 0 0 0 0 0 0 0 0 0 0 0 0 0 0 0 0 0 0 0
0 0 0 0 0 0 0 0 0 0 0 0 0 0 0 0 0 0 0 0 0 0 0 0 0 0 0 0 0 0 0 0 0 0 0 0 0 0 0 0 0 0 0 0
0 0 0 0 0 0 0 0 0 0 0 0 0 0 0 0 0 0 0 0 0 0 0 0 0 0 0 0 0 0 0 0 0 0 0 0 0 0 0 0 0 0 0 0
0 0 0 0 0 0 0 0 0 0 0 0 0 0 0 0 0 0 0 0 0 0 0 0 0 0 0 0 0 0 0 0 0 0 0 0 0 0 0 0 0 0 0 0
0 0 0 0 0 0 0 0 0 0 0 0 0 0 0 0 0 0 0 0 0 0 0 0 0 0 0 0 0 0 0 0 0 0 0 0 0 0 0 0 0 0 0 0
0 0 0 0 0 0 0 0 0 0 0 0 0 0 0 0 0 0 0 0 0 0 0 0 0 0 0 0 0 0 0 0 0 0 0 0 0 0 0 0 0 0 0 0
0 0 0 0 0 0 0 0 0 0 0 0 0 0 0 0 0 0 0 0 0 0 0 0 0 0 0 0 0 0 0 0 0 0 0 0 0 0 0 0 0 0 0 0
0 0 0 0 0 0 0 0 0 0 0 0 0 0 0 0 0 0 0 0 0 0 0 0 0 0 0 0 0 0 0 0 0 0 0 0 0 0 0 0 0 0 0 0
Wind_Speed
4 6 2 1 2 2 2 2 2 3 1 0 4 5 5 3 3 3 2 2 2 1 2 3 4 4 4 5 5 5 5 6 5 4 4 4 4 4 3 3 4 4 4 4
6 2 2 1 1 1 1 1 2 3 2 1 3 5 4 2 4 4 4 3 2 1 2 3 4 4 4 4 5 5 5 5 4 4 3 2 3 3 3 3 4 4 4 4
4 2 1 2 3 1 1 2 2 3 3 2 1 4 1 1 2 2 2 3 2 2 1 2 3 4 4 4 4 5 5 5 5 5 3 4 3 3 3 4 4 4 4 4
2 2 2 2 1 0 3 2 2 2 1 3 0 5 5 2 1 1 1 2 1 1 1 0 2 3 3 3 3 4 4 4 4 4 3 4 4 4 4 4 4 5 4 4
0 1 1 0 1 0 3 3 2 2 2 2 2 3 6 0 2 2 2 2 2 1 1 1 1 2 2 2 2 3 4 4 4 4 4 3 3 3 4 4 5 5 4 4
0 0 1 1 1 0 1 3 2 3 3 3 4 5 6 3 4 3 3 2 2 1 1 1 1 1 2 2 2 3 4 5 5 5 4 4 4 5 6 6 5 5 4 4
3 2 1 1 2 3 4 4 4 5 2 5 1 3 6 3 2 3 4 3 2 1 1 1 1 2 2 3 3 3 3 4 5 5 4 4 4 4 4 5 5 5 4 4
0 4 2 1 1 1 0 3 4 3 5 5 3 5 4 1 1 1 2 2 1 1 1 1 1 1 2 2 3 3 3 4 5 5 5 4 4 3 3 5 5 5 4 5
3 4 2 1 1 2 1 1 3 3 2 4 6 5 5 1 1 1 1 1 0 1 2 2 1 1 2 2 2 3 3 4 5 5 5 5 4 4 5 5 5 4 5 5
3 3 3 2 1 1 2 3 3 2 2 5 6 5 4 3 4 2 1 1 2 2 2 2 1 1 2 2 3 3 3 4 4 5 5 5 5 5 5 5 6 5 6 6
2 2 3 2 3 4 2 2 3 2 3 3 5 7 3 5 5 4 3 3 3 3 3 2 2 2 2 3 3 3 3 4 4 5 5 6 6 6 5 5 6 6 6 6
2 3 3 5 3 1 3 4 5 3 4 4 3 8 2 3 3 3 3 2 2 3 2 2 2 2 3 3 3 3 4 4 5 5 5 6 6 6 6 6 7 6 6 7
4 4 1 4 2 1 1 2 3 3 2 4 5 9 1 1 1 1 2 2 3 3 3 2 2 3 3 3 4 4 4 4 5 5 5 6 6 6 7 7 7 7 7 7
3 4 6 8 5 3 4 5 4 4 4 6 9 9 5 3 3 3 3 3 3 3 3 3 3 3 4 4 4 4 4 4 5 5 5 6 6 6 7 7 7 7 7 7
3 4 5 7 6 4 8 9 7 9 9 9 9 8 9 6 5 4 3 2 3 3 4 4 4 4 4 4 5 5 5 5 5 5 6 6 7 6 7 7 7 7 7 8
2 3 2 5 5 5 9 10 9 10 8 9 8 10 7 3 1 1 2 2 3 4 5 4 4 5 5 5 6 6 6 5 5 5 6 6 7 7 7 7 7 7 7 7
3 3 1 4 3 4 8 8 7 5 5 6 9 9 3 2 3 3 3 2 3 4 5 5 5 5 5 5 6 6 6 6 5 5 6 6 6 7 7 8 8 7 7 7
6 4 2 2 2 7 7 1 4 4 4 5 4 3 3 3 3 3 2 2 3 4 4 4 4 5 5 5 5 5 6 6 6 6 6 6 6 7 7 7 8 7 7 7
4 6 3 2 3 9 6 2 3 4 4 3 4 4 2 1 1 2 2 1 3 3 4 4 4 5 5 6 6 6 5 5 6 6 6 6 7 7 7 8 8 7 7 7
3 3 3 3 4 8 5 1 0 2 4 2 3 3 2 1 2 4 2 3 3 3 3 4 4 4 5 6 6 5 5 5 6 7 7 7 7 7 7 8 8 7 7 7
3 2 4 5 6 10 4 1 2 3 6 1 2 3 2 3 5 4 3 3 3 3 4 4 4 5 5 6 5 5 5 6 7 7 7 7 7 6 6 6 6 6 7 7
8 6 6 5 6 10 2 4 5 6 1 1 1 2 3 3 3 3 3 3 4 4 5 5 4 5 5 5 5 6 6 6 6 6 7 7 7 6 6 6 6 6 6 6
7 7 6 9 8 2 3 4 3 1 1 1 1 1 2 2 3 3 3 3 4 4 4 4 4 5 5 5 5 6 7 6 6 7 7 7 7 6 6 5 6 6 5 5
3 2 3 4 6 3 2 2 1 0 1 1 1 1 1 2 3 3 3 4 4 4 4 4 5 5 6 6 6 5 7 6 6 6 7 7 6 6 5 5 5 5 5 5
4 4 3 4 4 2 2 3 3 1 1 1 1 1 1 2 2 3 3 4 4 4 4 4 4 5 6 6 6 7 6 5 5 6 6 6 6 6 5 5 5 6 5 6
3 5 5 6 5 4 4 2 2 2 2 2 1 1 1 2 3 3 3 3 3 4 4 5 5 6 6 6 7 6 6 5 5 6 6 5 5 5 5 5 6 9 9 12
Wind_Direction
40 62 64 244 211 188 169 177 256 261 261 213 223 242 248 220 159 162 151 129 111 77 32 34 27 23 32 25 24 24 20 12 13 9 2 354 350 342 348 352 356 356 355 352
49 41 272 312 36 92 116 203 272 295 339 275 246 262 257 195 178 170 167 162 148 83 29 22 20 18 26 22 15 15 14 10 11 4 349 325 320 320 332 337 342 350 350 346
130 235 313 72 43 54 311 204 232 269 330 334 315 303 262 142 103 106 131 146 142 142 109 14 12 9 15 16 5 6 1 4 2 -0 358 351 352 341 353 348 342 343 336 335
85 328 43 73 37 101 263 241 229 252 350 293 156 286 268 199 130 141 169 167 174 172 170 14 2 2 359 355 355 359 358 360 358 1 9 9 0 340 327 326 326 328 330 326
224 352 49 54 280 251 241 280 260 247 193 287 255 230 281 212 229 233 217 211 208 207 195 243 323 334 339 346 354 352 357 359 358 360 3 2 349 329 320 328 331 328 327 325
217 322 126 213 303 302 303 359 16 48 82 272 228 194 268 242 232 219 209 208 207 217 232 287 320 349 350 353 359 0 2 358 357 358 356 354 340 334 334 334 329 326 326 324
344 336 353 39 33 13 42 56 13 350 343 256 250 209 249 265 260 194 186 196 208 212 236 274 312 341 342 345 348 354 357 350 348 350 345 337 328 325 323 322 319 318 319 319
3 290 279 13 135 187 283 127 158 235 258 287 313 245 255 292 326 109 140 158 165 245 249 264 278 299 316 326 339 342 343 339 339 340 333 325 323 319 312 313 310 307 302 300
176 256 320 356 29 135 138 182 171 154 270 275 271 281 291 172 38 60 83 89 272 272 281 284 286 301 314 318 321 320 324 329 330 331 328 322 322 318 311 310 307 304 304 303
153 253 284 307 31 13 149 150 103 137 239 272 281 261 246 222 226 231 236 245 272 285 287 296 305 304 310 305 312 321 321 318 319 323 321 326 316 307 307 310 307 303 302 304
131 176 297 326 210 204 160 168 157 172 192 209 274 269 227 208 204 202 224 241 251 272 278 286 294 295 302 318 323 323 323 326 324 322 317 317 313 309 311 308 305 304 303 304
139 130 251 255 262 233 186 188 159 180 240 213 244 269 282 182 189 192 223 261 269 276 277 281 290 307 316 325 319 316 318 321 317 316 315 312 311 312 311 309 307 306 304 302
138 127 336 326 322 349 237 210 182 164 168 203 223 262 301 91 174 241 247 276 290 299 303 307 312 315 309 312 311 309 311 311 311 313 310 309 310 312 308 306 307 307 305 303
124 165 196 225 238 199 239 241 207 180 210 232 231 250 273 271 265 270 273 281 291 298 296 299 303 307 308 309 306 303 306 306 310 311 306 305 304 303 302 304 306 305 304 302
131 211 236 257 267 247 247 249 224 216 216 223 245 242 255 251 240 244 258 283 303 312 309 299 301 302 307 311 311 307 301 305 307 305 304 301 301 301 303 306 304 304 305 304
147 202 250 275 272 269 269 260 240 234 231 236 254 265 265 263 237 269 268 277 296 303 307 306 309 310 309 310 309 312 304 300 302 299 298 302 306 306 305 305 305 307 305 304
173 162 195 267 309 332 272 243 214 211 211 202 229 244 260 275 257 249 249 252 275 293 304 307 306 302 302 301 302 301 300 299 299 298 300 303 305 306 306 307 307 304 303 304
161 156 175 264 354 250 247 219 190 197 237 220 227 249 242 252 261 250 217 223 273 296 303 301 300 303 301 299 301 300 300 304 299 298 300 304 307 305 305 305 304 302 302 301
158 154 166 183 251 273 285 252 178 190 262 234 226 253 281 321 321 273 230 251 273 281 288 288 291 295 301 304 306 307 305 309 307 303 302 303 303 303 304 304 303 303 302 302
82 122 153 173 224 252 256 227 165 101 276 251 201 234 249 87 280 269 300 319 311 313 310 308 308 310 310 309 312 310 308 310 308 308 304 299 298 298 298 298 299 301 300 300
146 158 190 203 234 261 255 211 113 179 254 236 194 211 201 209 229 265 304 313 317 317 318 321 321 319 313 314 320 314 310 305 303 309 309 304 299 295 293 295 299 300 302 303
177 179 195 181 213 252 190 135 182 222 255 190 207 213 219 242 267 292 305 311 320 323 324 326 325 321 320 323 326 320 314 309 311 312 311 308 304 302 307 301 302 303 304 303
199 193 189 195 214 234 161 181 209 188 197 232 231 251 232 256 277 300 303 304 311 315 317 320 319 319 323 326 325 315 311 312 315 314 312 312 313 308 306 302 304 306 307 307
241 197 186 238 256 245 219 231 284 246 212 242 254 260 237 253 280 295 301 309 312 316 318 320 323 322 322 324 320 308 309 313 313 312 312 316 317 315 312 311 310 308 309 308
213 177 202 246 268 294 265 239 237 251 226 258 303 266 243 249 282 285 292 302 306 315 318 318 317 314 313 317 317 318 318 314 312 311 313 317 318 314 315 315 313 312 303 306
191 184 190 231 222 207 239 235 217 207 225 224 228 276 279 253 264 280 285 286 293 304 311 316 315 314 313 317 317 320 321 319 315 316 318 317 317 317 319 320 321 325 325 324